GW1874 Weather Reports


time (UTC)temp
C
wind
direction
speed
KPH
gust
KPH
rain 1hr
cm
rain 24hr
cm
rain mn
cm
humidity
%
barometer
mb
20260505124915 11 327 0.0 0.0 0.00 0.20 0.20 98 1018.4
20260505124412 11 325 0.0 0.0 0.00 0.20 0.20 98 1018.6
20260505123908 11 325 0.0 0.0 0.00 0.20 0.20 98 1018.4
20260505123405 11 324 0.0 0.0 0.00 0.20 0.20 98 1018.7
20260505122900 11 325 0.0 0.0 0.00 0.20 0.20 98 1018.6
20260505122358 11 325 0.0 0.0 0.00 0.20 0.20 98 1018.7
20260505121854 11 325 0.0 0.0 0.00 0.20 0.20 98 1018.6
20260505121351 11 326 0.0 0.0 0.00 0.20 0.20 98 1018.7
20260505120847 11 327 0.0 0.0 0.00 0.20 0.20 98 1018.7
20260505120344 11 326 0.0 0.0 0.00 0.20 0.20 98 1018.6
20260505115842 11 324 0.0 0.0 0.00 0.20 0.20 98 1018.7
20260505115340 11 326 0.0 0.0 0.00 0.20 0.20 98 1018.6
20260505114838 11 328 0.0 0.0 0.00 0.20 0.20 98 1018.6
20260505114334 11 325 0.0 0.0 0.00 0.20 0.20 98 1018.5
20260505113830 10 326 0.0 0.0 0.00 0.20 0.20 98 1018.4
20260505113327 10 325 0.0 0.0 0.00 0.20 0.20 98 1018.7
20260505112823 10 324 0.0 0.0 0.00 0.20 0.20 98 1018.6
20260505112320 11 323 0.0 0.0 0.00 0.20 0.20 98 1018.3
20260505111816 10 324 0.0 0.0 0.00 0.20 0.20 98 1018.4
20260505111311 10 325 0.0 0.0 0.00 0.20 0.20 98 1018.3
20260505110807 10 327 0.0 0.0 0.00 0.20 0.20 98 1018.5
20260505110306 10 327 0.0 0.0 0.00 0.20 0.20 98 1018.6
20260505101739 10 323 0.0 0.0 0.00 0.20 0.20 98 1018.7
20260505101235 10 323 0.0 0.0 0.00 0.20 0.20 98 1018.7
20260505100732 10 324 0.0 0.0 0.00 0.20 0.20 98 1018.8
20260505100229 10 324 0.0 0.0 0.00 0.20 0.20 98 1018.8
20260505095724 10 323 0.0 0.0 0.00 0.20 0.20 98 1018.8
20260505095222 10 323 0.0 0.0 0.00 0.20 0.20 98 1018.6
20260505094718 10 323 0.0 0.0 0.00 0.20 0.20 98 1018.7
20260505094214 10 324 0.0 0.0 0.00 0.20 0.20 98 1018.8
20260505093711 10 324 0.0 0.0 0.00 0.20 0.20 98 1018.7
20260505093208 10 325 0.0 0.0 0.00 0.20 0.20 98 1018.7
20260505092705 10 325 0.0 0.0 0.00 0.20 0.20 98 1018.8
20260505092204 10 323 0.0 0.0 0.00 0.20 0.20 98 1018.8
20260505091700 10 325 0.0 0.0 0.00 0.20 0.20 98 1018.8
20260505091158 11 325 0.0 0.0 0.00 0.20 0.20 98 1018.9
20260505090655 11 324 0.0 0.0 0.18 0.20 0.20 98 1019.2
20260505090154 11 324 0.0 0.0 0.18 0.20 0.20 98 1019.4
20260505085651 11 326 0.0 0.0 0.00 0.18 0.18 98 1019.2
20260505085149 11 323 0.0 0.0 0.13 0.18 0.18 98 1019.3
20260505084646 11 323 0.0 0.0 0.13 0.18 0.18 98 1019.4
20260505084145 11 326 0.0 0.0 0.00 0.15 0.15 98 1019.2
20260505083642 11 325 0.0 0.0 0.00 0.15 0.15 98 1019.3
20260505083138 11 326 0.0 0.0 0.00 0.15 0.15 98 1019.5
20260505082634 11 326 0.0 0.0 0.00 0.15 0.15 98 1019.4
20260505082131 11 324 0.0 0.0 0.00 0.15 0.15 98 1019.2
20260505081627 11 325 0.0 0.0 0.00 0.15 0.15 98 1019.3
20260505081125 11 326 0.0 0.0 0.18 0.15 0.15 98 1019.3
20260505080621 11 325 0.0 0.0 0.00 0.13 0.13 98 1019.4
20260505080118 11 326 0.0 0.0 0.13 0.13 0.13 98 1019.1
20260505075614 11 322 0.0 0.0 0.30 0.13 0.13 98 1019.1
20260505075111 11 326 0.0 0.0 0.18 0.10 0.10 98 1019.4
20260505074607 11 323 0.0 0.0 0.13 0.08 0.08 98 1019.3
20260505074105 11 322 0.0 0.0 0.13 0.08 0.08 98 1019.3
20260505073602 11 326 0.0 0.0 0.18 0.05 0.05 98 1019.2
20260505073101 11 318 0.0 0.0 0.18 0.05 0.05 98 1019.5
20260505072555 11 324 0.0 0.0 0.13 0.03 0.03 98 1019.8
20260505072052 11 325 0.0 0.0 0.13 0.03 0.03 98 1019.9
20260505071548 11 337 0.0 0.0 0.00 0.00 0.00 98 1019.5
20260505071046 11 326 0.0 0.0 0.00 0.00 0.00 98 1019.7
20260505070543 10 328 0.0 0.0 0.00 0.00 0.00 97 1019.8
20260505070039 11 324 0.0 0.0 0.00 0.00 0.00 97 1019.9
20260505065535 10 327 0.0 0.0 0.00 0.51 0.51 97 1019.7
20260505065032 10 325 0.0 0.0 0.00 0.51 0.51 97 1019.6
20260505064529 10 326 0.0 0.0 0.00 0.51 0.51 97 1019.5
20260505064027 10 326 0.0 0.0 0.00 0.51 0.51 97 1019.4
20260505063524 10 325 0.0 0.0 0.00 0.51 0.51 97 1019.3
20260505063020 10 323 0.0 0.0 0.00 0.51 0.51 97 1019.2
20260505062517 10 324 0.0 0.0 0.00 0.51 0.51 97 1019.5
20260505062014 10 326 0.0 0.0 0.00 0.51 0.51 97 1019.3
20260505061512 10 324 0.0 0.0 0.00 0.51 0.51 97 1019.6
20260505061009 10 323 0.0 0.0 0.18 0.51 0.51 97 1019.5
20260505060507 10 311 0.0 0.0 0.00 0.48 0.48 97 1019.5
20260505060003 10 324 0.0 0.0 0.13 0.48 0.48 97 1019.5
20260505055458 10 325 0.0 0.0 0.13 0.48 0.48 97 1019.3
20260505054955 10 326 0.0 0.0 0.00 0.46 0.46 97 1019.5
20260505054453 10 317 0.0 0.0 0.00 0.46 0.46 96 1019.6
20260505053950 10 318 0.0 0.0 0.00 0.46 0.46 96 1019.5
20260505053447 10 324 0.0 0.0 0.18 0.46 0.46 96 1019.7
20260505052944 10 323 0.0 0.0 0.18 0.46 0.46 96 1019.6
20260505052441 10 323 0.0 0.0 0.00 0.43 0.43 96 1019.7
20260505051938 10 325 0.0 0.0 0.13 0.43 0.43 96 1019.6
20260505051435 10 326 0.0 0.0 0.00 0.41 0.41 96 1019.7
20260505050933 10 325 0.0 0.0 0.18 0.41 0.41 96 1019.5
20260505050432 10 323 0.0 0.0 0.18 0.41 0.41 96 1019.6
20260505041359 11 314 0.0 0.0 0.13 0.15 0.15 95 1020.3
20260505040856 11 326 0.0 0.0 0.13 0.15 0.15 95 1020.2
20260505040354 11 323 0.0 0.0 0.18 0.13 0.13 95 1020.3
20260505035850 11 324 0.0 0.0 0.18 0.13 0.13 95 1020.1
20260505035346 11 323 0.0 0.0 0.00 0.10 0.10 94 1020.0
20260505034843 11 324 0.0 0.0 0.00 0.10 0.10 94 1019.6
20260505034340 11 326 0.0 0.0 0.00 0.10 0.10 94 1019.3
20260505033837 11 322 0.0 0.0 0.00 0.10 0.10 93 1019.0
20260505033334 11 326 0.0 0.0 0.13 0.10 0.10 92 1018.8
20260505032832 11 326 0.0 0.0 0.13 0.10 0.10 91 1018.7
20260505032328 11 320 0.0 0.0 0.00 0.08 0.08 92 1018.7
20260505031826 11 326 0.0 0.0 0.18 0.08 0.08 92 1018.8
20260505031322 11 327 0.0 0.0 0.18 0.08 0.08 92 1018.9
20260505030819 11 324 0.0 0.0 0.00 0.05 0.05 91 1018.7
20260505030315 11 325 0.0 0.0 0.00 0.05 0.05 91 1018.9
20260505025811 11 326 0.0 0.0 0.18 0.05 0.05 90 1019.0
20260505025309 11 322 0.0 0.0 0.00 0.03 0.03 89 1019.2
20260505024807 11 239 0.0 0.0 0.00 0.03 0.03 89 1019.1
20260505024304 11 323 0.0 0.0 0.00 0.03 0.03 89 1018.8
20260505023801 11 327 0.0 0.0 0.00 0.03 0.03 89 1019.0
20260505023258 12 309 0.0 0.0 0.00 0.03 0.03 89 1019.2
20260505022755 12 298 0.0 0.0 0.00 0.03 0.03 90 1019.1
20260505022252 12 327 0.0 0.0 0.00 0.03 0.03 90 1019.1
20260505021749 12 327 0.0 0.0 0.00 0.03 0.03 89 1018.7
20260505021246 12 332 0.0 0.0 0.00 0.03 0.03 90 1018.9
20260505020742 12 325 0.0 0.0 0.00 0.03 0.03 89 1018.9
20260505020237 12 321 0.0 0.0 0.00 0.03 0.03 90 1018.8
20260505015735 12 323 0.0 0.0 0.00 0.03 0.03 90 1019.0
20260505015231 12 323 0.0 0.0 0.00 0.03 0.03 89 1018.8
20260505014728 12 322 0.0 0.0 0.00 0.03 0.03 89 1019.2
20260505014226 12 331 0.0 0.0 0.00 0.03 0.03 89 1019.3
20260505013722 12 312 0.0 0.0 0.00 0.03 0.03 89 1019.3
20260505013219 12 324 0.0 0.0 0.00 0.03 0.03 90 1019.4
20260505012718 12 325 0.0 0.0 0.00 0.03 0.03 89 1019.5
20260505012215 12 323 0.0 0.0 0.00 0.03 0.03 89 1019.5
20260505011710 13 327 0.0 0.0 0.00 0.03 0.03 89 1019.3
20260505011208 12 319 0.0 0.0 0.00 0.03 0.03 89 1019.5
20260505010703 12 324 0.0 0.0 0.00 0.03 0.03 89 1019.3
20260505010200 13 324 0.0 0.0 0.00 0.03 0.03 88 1019.3
20260505005656 13 322 0.0 0.0 0.13 0.03 0.03 87 1019.4
20260505005153 13 274 0.0 0.0 0.13 0.03 0.03 87 1019.4
20260505004650 13 325 0.0 0.0 0.00 0.00 0.00 86 1019.4
20260505004147 13 327 0.0 0.0 0.00 0.00 0.00 86 1019.6
20260505003644 13 323 0.0 0.0 0.00 0.00 0.00 86 1019.6
20260505003142 13 318 0.0 0.0 0.00 0.00 0.00 85 1019.5
20260505002638 13 323 0.0 0.0 0.00 0.00 0.00 86 1019.6
20260505002136 13 305 0.0 0.0 0.00 0.00 0.00 86 1019.6
20260505001633 13 328 0.0 0.0 0.00 0.00 0.00 85 1019.6
20260505001130 13 321 0.0 0.0 0.00 0.00 0.00 85 1019.7
20260505000627 13 317 0.0 0.0 0.00 0.00 0.00 84 1019.2
20260505000125 14 324 0.0 0.0 0.00 0.00 0.00 84 1019.4
20260504235621 14 320 0.0 0.0 0.00 0.00 0.00 83 1019.4
20260504235118 15 319 0.0 0.0 0.00 0.00 0.00 81 1019.3
20260504234615 15 322 0.0 0.0 0.00 0.00 0.00 81 1019.2
20260504234112 15 347 0.0 0.0 0.00 0.00 0.00 80 1019.3
20260504233608 15 321 0.0 0.0 0.00 0.00 0.00 79 1019.3
20260504233104 15 318 0.0 0.0 0.00 0.00 0.00 78 1019.2
20260504232602 15 328 0.0 0.0 0.00 0.00 0.00 79 1019.1
20260504232059 15 291 0.0 0.0 0.00 0.00 0.00 76 1019.1
20260504231555 15 319 0.0 0.0 0.00 0.00 0.00 76 1019.0
20260504231051 15 330 0.0 0.0 0.00 0.00 0.00 75 1018.9
20260504230547 15 322 0.0 0.0 0.00 0.00 0.00 75 1019.1
20260504230047 16 321 0.0 0.0 0.00 0.00 0.00 73 1019.2
20260504225543 16 316 0.0 0.0 0.00 0.00 0.00 74 1019.1
20260504225041 16 322 0.0 0.0 0.00 0.00 0.00 74 1019.3
20260504224537 16 308 0.0 0.0 0.00 0.00 0.00 74 1019.3
20260504224034 16 322 0.0 0.0 0.00 0.00 0.00 72 1019.2
20260504223531 16 299 0.0 0.0 0.00 0.00 0.00 70 1019.3
20260504223027 16 289 0.0 0.0 0.00 0.00 0.00 69 1019.2
20260504222524 16 323 0.0 0.0 0.00 0.00 0.00 70 1019.4
20260504222021 16 320 0.0 0.0 0.00 0.00 0.00 69 1019.4
20260504221518 16 306 0.0 0.0 0.00 0.00 0.00 68 1019.4
20260504221015 16 329 0.0 0.0 0.00 0.00 0.00 66 1019.4
20260504220512 16 336 0.0 0.0 0.00 0.00 0.00 66 1019.5
20260504220009 16 307 0.0 0.0 0.00 0.00 0.00 66 1019.4
20260504215505 17 321 0.0 0.0 0.00 0.00 0.00 66 1019.4
20260504215003 17 320 0.0 0.0 0.00 0.00 0.00 66 1019.3
20260504214458 17 305 0.0 0.0 0.00 0.00 0.00 67 1019.4
20260504213955 17 323 0.0 0.0 0.00 0.00 0.00 67 1019.3
20260504213451 17 324 0.0 0.0 0.00 0.00 0.00 70 1019.2
20260504212949 17 321 0.0 0.0 0.00 0.00 0.00 69 1019.3
20260504212444 17 317 0.0 0.0 0.00 0.00 0.00 70 1019.4
20260504211942 17 285 0.0 0.0 0.00 0.00 0.00 70 1019.2
20260504211438 17 329 0.0 0.0 0.00 0.00 0.00 70 1019.2
20260504210936 17 318 0.0 0.0 0.00 0.00 0.00 70 1019.5
20260504210433 17 320 0.0 0.0 0.00 0.00 0.00 69 1019.5
20260504205930 17 327 0.0 0.0 0.00 0.00 0.00 68 1019.5
20260504205427 17 324 0.0 0.0 0.00 0.00 0.00 67 1019.3
20260504204925 17 329 0.0 0.0 0.00 0.00 0.00 68 1019.6
20260504204423 17 335 0.0 0.0 0.00 0.00 0.00 68 1019.5
20260504203922 17 333 0.0 0.0 0.00 0.00 0.00 68 1019.5
20260504203420 17 323 0.0 0.0 0.00 0.00 0.00 67 1019.3
20260504202915 17 298 0.0 0.0 0.00 0.00 0.00 68 1019.4
20260504202412 17 319 0.0 0.0 0.00 0.00 0.00 67 1019.3
20260504201909 17 324 0.0 0.0 0.00 0.00 0.00 63 1019.3
20260504201406 16 319 0.0 0.0 0.00 0.00 0.00 62 1019.2
20260504200904 16 323 0.0 0.0 0.00 0.00 0.00 61 1019.4
20260504200400 16 290 0.0 0.0 0.00 0.00 0.00 62 1019.6
20260504195857 16 318 0.0 0.0 0.00 0.00 0.00 63 1019.5
20260504195352 16 319 0.0 0.0 0.00 0.00 0.00 65 1019.6
20260504194849 16 338 0.0 0.0 0.00 0.00 0.00 64 1019.8
20260504194345 16 321 0.0 0.0 0.00 0.00 0.00 65 1019.4
20260504193841 16 326 0.0 0.0 0.00 0.00 0.00 67 1019.4
20260504193339 16 318 0.0 0.0 0.00 0.00 0.00 67 1019.4
20260504192838 16 321 0.0 0.0 0.00 0.00 0.00 66 1019.3
20260504192335 16 313 0.0 0.0 0.00 0.00 0.00 65 1019.4
20260504191833 16 325 0.0 0.0 0.00 0.00 0.00 66 1019.5
20260504191330 16 323 0.0 0.0 0.00 0.00 0.00 65 1019.6
20260504190826 17 326 0.0 0.0 0.00 0.00 0.00 63 1019.3
20260504190322 17 325 0.0 0.0 0.00 0.00 0.00 63 1019.5
20260504185819 17 265 0.0 0.0 0.00 0.00 0.00 61 1019.5
20260504185316 17 325 0.0 0.0 0.00 0.00 0.00 62 1019.6
20260504184812 17 318 0.0 0.0 0.00 0.00 0.00 63 1019.5
20260504184308 17 314 0.0 0.0 0.00 0.00 0.00 63 1019.5
20260504183803 17 325 0.0 0.0 0.00 0.00 0.00 64 1019.4
20260504183301 17 327 0.0 0.0 0.00 0.00 0.00 64 1019.5
20260504182759 17 317 0.0 0.0 0.00 0.00 0.00 63 1019.3
20260504182256 17 316 0.0 0.0 0.00 0.00 0.00 61 1019.5
20260504181753 17 311 0.0 0.0 0.00 0.00 0.00 63 1019.5
20260504181250 17 322 0.0 0.0 0.00 0.00 0.00 65 1019.3
20260504180750 16 325 0.0 0.0 0.00 0.00 0.00 63 1019.7
20260504180248 16 306 0.0 0.0 0.00 0.00 0.00 64 1019.5
20260504175745 17 317 0.0 0.0 0.00 0.00 0.00 64 1019.6
20260504175242 16 331 0.0 0.0 0.00 0.00 0.00 65 1019.3
20260504174739 17 346 0.0 0.0 0.00 0.00 0.00 64 1019.2
20260504174237 17 322 0.0 0.0 0.00 0.00 0.00 65 1019.1
20260504173733 17 318 0.0 0.0 0.00 0.00 0.00 68 1019.3
20260504173231 16 322 0.0 0.0 0.00 0.00 0.00 69 1019.3
20260504172727 17 320 0.0 0.0 0.00 0.00 0.00 66 1019.1
20260504172224 17 316 0.0 0.0 0.00 0.00 0.00 67 1019.3
20260504171720 17 333 0.0 0.0 0.00 0.00 0.00 67 1019.2
20260504171217 17 314 0.0 0.0 0.00 0.00 0.00 69 1019.2
20260504170714 16 294 0.0 0.0 0.00 0.00 0.00 71 1019.1
20260504170212 16 324 0.0 0.0 0.00 0.00 0.00 73 1019.1
20260504160130 15 319 0.0 0.0 0.00 0.00 0.00 78 1019.4
20260504151057 10 325 0.0 0.0 0.00 0.00 0.00 96 1019.2
20260504150555 10 322 0.0 0.0 0.00 0.00 0.00 97 1019.2
20260504141020 7 325 0.0 0.0 0.00 0.00 0.00 97 1019.2
20260504140517 7 323 0.0 0.0 0.00 0.00 0.00 97 1019.3